Location: Newark
(52.4787°S, 179.0532°W)
Time: 23:58:43
(UTC+00:00)

Vanguard 1 - Pass Details

Date: 21 November 2019
Orbit: 652 x 3832 km, 34.3° (Epoch: 09 December)

Event Time Altitude Azimuth Distance (km) Brightness Sun altitude
Rises 09:19:44 0° 327° (NNW) 4,992 13.4 -11.3°
Reaches altitude 10° 09:23:06 10° 338° (NNW) 4,402 13.1 -11.6°
Maximum altitude 09:33:40 30° 33° (NNE) 4,093 12.6 -12.4°
Drops below altitude 10° 09:49:22 10° 82° (E) 6,623 13.9 -13.6°
Sets 09:56:02 0° 90° (E) 7,892 14.4 -14.0°
